,,,PA_Meas_PMT16A,,PR_Meas_QMR101_102,,RH_Meas_QMH101,,SR_Meas_QMS101,,TA_Meas_QMH101,,GenWind,,GenWind,
date,time,status,PA,status,PR,status,RH,status,SR,status,TA,status,DirAvg,status,SpdAvg,
2013-02-20, 00:00:05,VALID,1007.87,VALID,0,VALID,104,VALID,0,VALID,25.4871,VALID,338,VALID,0,
2013-02-20, 00:01:04,VALID,1007.83,VALID,0,VALID,104,VALID,0,VALID,25.4871,VALID,339,VALID,0,
2013-02-20, 00:02:04,VALID,1007.83,VALID,0,VALID,104,VALID,0,VALID,25.4871,VALID,338,VALID,0.11875,
2013-02-20, 00:03:04,VALID,1007.82,VALID,0,VALID,104,VALID,0,VALID,25.5066,VALID,339,VALID,0,
2013-02-20, 00:04:04,VALID,1007.78,VALID,0,VALID,104,VALID,0.112112,VALID,25.4852,VALID,338,VALID,0,
2013-02-20, 00:05:04,VALID,1007.78,VALID,0,VALID,104,VALID,0,VALID,25.4852,VALID,339,VALID,0.221094,
2013-02-20, 00:06:04,VALID,1007.74,VALID,0,VALID,104,VALID,0.112112,VALID,25.5047,VALID,339,VALID,0.297266,
2013-02-20, 00:07:04,VALID,1007.75,VALID,0,VALID,104,VALID,0.112112,VALID,25.4852,VALID,338,VALID,0.248047,
2013-02-20, 00:08:04,VALID,1007.73,VALID,0,VALID,104,VALID,0,VALID,25.5047,VALID,338,VALID,0.275,
2013-02-20, 00:09:04,VALID,1007.72,VALID,0,VALID,104,VALID,0,VALID,25.5261,VALID,339,VALID,0.264062,
2013-02-20, 00:10:04,VALID,1007.7,VALID,0,VALID,104,VALID,0.112112,VALID,25.4852,VALID,338,VALID,0.301953,
2013-02-20, 00:11:04,VALID,1007.68,VALID,0,VALID,104,VALID,0.112112,VALID,25.5047,VALID,338,VALID,0.246094,
2013-02-20, 00:12:04,VALID,1007.63,VALID,0,VALID,104,VALID,0,VALID,25.4852,VALID,339,VALID,0.277344,
2013-02-20, 00:13:04,VALID,1007.6,VALID,0,VALID,104,VALID,0.112112,VALID,25.4852,VALID,338,VALID,0.285547,
2013-02-20, 00:14:04,VALID,1007.56,VALID,0,VALID,104,VALID,0.112112,VALID,25.4852,VALID,339,VALID,0.191016,
2013-02-20, 00:15:04,VALID,1007.55,VALID,0,VALID,104,VALID,0.112112,VALID,25.5047,VALID,339,VALID,0.325781,
2013-02-20, 00:16:04,VALID,1007.52,VALID,0,VALID,104,VALID,0.112112,VALID,25.5261,VALID,338,VALID,0.234375,
2013-02-20, 00:17:04,VALID,1007.51,VALID,0,VALID,104,VALID,0,VALID,25.4852,VALID,339,VALID,0,
2013-02-20, 00:18:04,VALID,1007.52,VALID,0,VALID,104,VALID,0,VALID,25.4871,VALID,339,VALID,0.1625,
2013-02-20, 00:19:04,VALID,1007.52,VALID,0,VALID,104,VALID,0,VALID,25.4677,VALID,338,VALID,0.255859,
2013-02-20, 00:20:04,VALID,1007.5,VALID,0,VALID,104,VALID,0,VALID,25.4482,VALID,339,VALID,0.400391,
2013-02-20, 00:21:04,VALID,1007.52,VALID,0,VALID,104,VALID,0,VALID,25.4482,VALID,338,VALID,0.458594,
2013-02-20, 00:22:04,VALID,1007.49,VALID,0,VALID,104,VALID,0,VALID,25.4287,VALID,338,VALID,0.325391,
2013-02-20, 00:23:04,VALID,1007.46,VALID,0,VALID,104,VALID,0,VALID,25.4287,VALID,338,VALID,0.312891,
2013-02-20, 00:24:04,VALID,1007.43,VALID,0,VALID,104,VALID,0,VALID,25.4092,VALID,339,VALID,0,
2013-02-20, 00:25:04,VALID,1007.43,VALID,0,VALID,104,VALID,0,VALID,25.4092,VALID,338,VALID,0.216797,
2013-02-20, 00:26:04,VALID,1007.4,VALID,0,VALID,104,VALID,0,VALID,25.4092,VALID,339,VALID,0.176563,
2013-02-20, 00:27:04,VALID,1007.45,VALID,0,VALID,104,VALID,0,VALID,25.4306,VALID,339,VALID,0.149219,
2013-02-20, 00:28:04,VALID,1007.46,VALID,0,VALID,104,VALID,0,VALID,25.3897,VALID,338,VALID,0.0554687,
2013-02-20, 00:29:04,VALID,1007.48,VALID,0,VALID,104,VALID,0,VALID,25.4092,VALID,338,VALID,0.289063,
2013-02-20, 00:30:04,VALID,1007.45,VALID,0,VALID,104,VALID,0,VALID,25.3916,VALID,338,VALID,0.305469,
2013-02-20, 00:31:04,VALID,1007.43,VALID,0,VALID,104,VALID,0,VALID,25.3507,VALID,339,VALID,0.278516,
2013-02-20, 00:32:04,VALID,1007.38,VALID,0,VALID,104,VALID,0,VALID,25.3702,VALID,339,VALID,0.324219,
2013-02-20, 00:33:04,VALID,1007.4,VALID,0,VALID,104,VALID,0,VALID,25.3683,VALID,339,VALID,0.329688,
2013-02-20, 00:34:04,VALID,1007.41,VALID,0,VALID,104,VALID,0,VALID,25.4092,VALID,339,VALID,0.260156,
2013-02-20, 00:35:04,VALID,1007.39,VALID,0,VALID,104,VALID,0.112112,VALID,25.3683,VALID,339,VALID,0.10625,
2013-02-20, 00:36:04,VALID,1007.4,VALID,0,VALID,104,VALID,0.112112,VALID,25.3683,VALID,339,VALID,0.377734,
2013-02-20, 00:37:04,VALID,1007.41,VALID,0,VALID,104,VALID,0.112112,VALID,25.4092,VALID,339,VALID,0.21875,
2013-02-20, 00:38:04,VALID,1007.39,VALID,0,VALID,104,VALID,0.112112,VALID,25.3877,VALID,338,VALID,0.242969,
2013-02-20, 00:39:04,VALID,1007.38,VALID,0,VALID,104,VALID,0.112112,VALID,25.3877,VALID,339,VALID,0,
2013-02-20, 00:40:04,VALID,1007.36,VALID,0,VALID,104,VALID,0.112112,VALID,25.3683,VALID,339,VALID,0,
2013-02-20, 00:41:04,VALID,1007.34,VALID,0,VALID,104,VALID,0.112112,VALID,25.3683,VALID,339,VALID,0,
2013-02-20, 00:42:04,VALID,1007.32,VALID,0,VALID,104,VALID,0.112112,VALID,25.3488,VALID,339,VALID,0.0769531,
2013-02-20, 00:43:04,VALID,1007.3,VALID,0,VALID,104,VALID,0.112112,VALID,25.3488,VALID,339,VALID,0.00195313,
2013-02-20, 00:44:04,VALID,1007.32,VALID,0,VALID,104,VALID,0,VALID,25.3488,VALID,339,VALID,0,
2013-02-20, 00:45:04,VALID,1007.3,VALID,0,VALID,104,VALID,0.112112,VALID,25.3488,VALID,339,VALID,0,
2013-02-20, 00:46:04,VALID,1007.28,VALID,0,VALID,104,VALID,0.112112,VALID,25.3488,VALID,339,VALID,0,
2013-02-20, 00:47:04,VALID,1007.27,VALID,0,VALID,104,VALID,0,VALID,25.3488,VALID,338,VALID,0,
2013-02-20, 00:48:04,VALID,1007.26,VALID,0,VALID,104,VALID,0,VALID,25.3507,VALID,339,VALID,0,
2013-02-20, 00:49:04,VALID,1007.27,VALID,0,VALID,104,VALID,0,VALID,25.3312,VALID,338,VALID,0,
2013-02-20, 00:50:04,VALID,1007.24,VALID,0,VALID,104,VALID,0,VALID,25.3507,VALID,339,VALID,0,
2013-02-20, 00:51:04,VALID,1007.2,VALID,0,VALID,104,VALID,0,VALID,25.3312,VALID,339,VALID,0,
2013-02-20, 00:52:04,VALID,1007.2,VALID,0,VALID,104,VALID,0,VALID,25.3507,VALID,339,VALID,0,
2013-02-20, 00:53:04,VALID,1007.21,VALID,0,VALID,104,VALID,0,VALID,25.3117,VALID,338,VALID,0,
2013-02-20, 00:54:04,VALID,1007.2,VALID,0,VALID,104,VALID,0,VALID,25.3312,VALID,339,VALID,0,
2013-02-20, 00:55:04,VALID,1007.22,VALID,0,VALID,104,VALID,0,VALID,25.3117,VALID,338,VALID,0,
2013-02-20, 00:56:04,VALID,1007.22,VALID,0,VALID,104,VALID,0,VALID,25.3117,VALID,338,VALID,0,
2013-02-20, 00:57:04,VALID,1007.22,VALID,0,VALID,104,VALID,0,VALID,25.3331,VALID,338,VALID,0,
2013-02-20, 00:58:04,VALID,1007.21,VALID,0,VALID,104,VALID,0,VALID,25.2727,VALID,339,VALID,0,
2013-02-20, 00:59:04,VALID,1007.21,VALID,0,VALID,104,VALID,0,VALID,25.2941,VALID,339,VALID,0,
2013-02-20, 01:00:04,VALID,1007.24,VALID,0,VALID,104,VALID,0,VALID,25.2727,VALID,338,VALID,0,
2013-02-20, 01:01:04,VALID,1007.25,VALID,0,VALID,104,VALID,0,VALID,25.2941,VALID,339,VALID,0,
2013-02-20, 01:02:04,VALID,1007.26,VALID,0,VALID,104,VALID,0,VALID,25.2727,VALID,339,VALID,0,
2013-02-20, 01:03:04,VALID,1007.24,VALID,0,VALID,104,VALID,0,VALID,25.2727,VALID,339,VALID,0,
2013-02-20, 01:04:04,VALID,1007.23,VALID,0,VALID,104,VALID,0,VALID,25.2727,VALID,338,VALID,0,
2013-02-20, 01:05:04,VALID,1007.22,VALID,0,VALID,104,VALID,0,VALID,25.2746,VALID,339,VALID,0,
2013-02-20, 01:06:04,VALID,1007.21,VALID,0,VALID,104,VALID,0,VALID,25.2727,VALID,339,VALID,0,
2013-02-20, 01:07:04,VALID,1007.19,VALID,0,VALID,104,VALID,0,VALID,25.2922,VALID,339,VALID,0,
2013-02-20, 01:08:04,VALID,1007.22,VALID,0,VALID,104,VALID,0,VALID,25.2727,VALID,339,VALID,0,
2013-02-20, 01:09:04,VALID,1007.25,VALID,0,VALID,104,VALID,0,VALID,25.2746,VALID,339,VALID,0,
2013-02-20, 01:10:04,VALID,1007.23,VALID,0,VALID,104,VALID,0,VALID,25.2941,VALID,339,VALID,0,
2013-02-20, 01:11:04,VALID,1007.19,VALID,0,VALID,104,VALID,0,VALID,25.2727,VALID,339,VALID,0,
2013-02-20, 01:12:04,VALID,1007.21,VALID,0,VALID,104,VALID,0,VALID,25.2746,VALID,339,VALID,0,
2013-02-20, 01:13:04,VALID,1007.18,VALID,0,VALID,104,VALID,0,VALID,25.2727,VALID,339,VALID,0,
2013-02-20, 01:14:04,VALID,1007.17,VALID,0,VALID,104,VALID,0,VALID,25.2532,VALID,338,VALID,0,
2013-02-20, 01:15:04,VALID,1007.12,VALID,0,VALID,104,VALID,0,VALID,25.2532,VALID,339,VALID,0,
2013-02-20, 01:16:04,VALID,1007.11,VALID,0,VALID,104,VALID,0,VALID,25.2727,VALID,339,VALID,0,
2013-02-20, 01:17:04,VALID,1007.13,VALID,0,VALID,104,VALID,0,VALID,25.2532,VALID,339,VALID,0,
2013-02-20, 01:18:04,VALID,1007.14,VALID,0,VALID,104,VALID,0,VALID,25.2532,VALID,339,VALID,0,
2013-02-20, 01:19:04,VALID,1007.11,VALID,0,VALID,104,VALID,0,VALID,25.2337,VALID,339,VALID,0,
2013-02-20, 01:20:04,VALID,1007.09,VALID,0,VALID,104,VALID,0,VALID,25.2532,VALID,339,VALID,0,
2013-02-20, 01:21:04,VALID,1007.1,VALID,0,VALID,104,VALID,0,VALID,25.2337,VALID,338,VALID,0.321484,
2013-02-20, 01:22:04,VALID,1007.12,VALID,0,VALID,104,VALID,0,VALID,25.1947,VALID,339,VALID,0.338672,
2013-02-20, 01:23:04,VALID,1007.1,VALID,0,VALID,104,VALID,0,VALID,25.1947,VALID,339,VALID,0.3,
2013-02-20, 01:24:04,VALID,1007.12,VALID,0,VALID,104,VALID,0,VALID,25.1947,VALID,338,VALID,0.313672,
2013-02-20, 01:25:04,VALID,1007.1,VALID,0,VALID,104,VALID,0,VALID,25.1947,VALID,339,VALID,0.242578,
2013-02-20, 01:26:04,VALID,1007.1,VALID,0,VALID,104,VALID,0,VALID,25.1752,VALID,338,VALID,0.181641,
2013-02-20, 01:27:04,VALID,1007.12,VALID,0,VALID,104,VALID,0,VALID,25.1752,VALID,339,VALID,0.01875,
2013-02-20, 01:28:04,VALID,1007.08,VALID,0,VALID,104,VALID,0,VALID,25.1947,VALID,339,VALID,0,
2013-02-20, 01:29:04,VALID,1007.06,VALID,0,VALID,104,VALID,0,VALID,25.1966,VALID,339,VALID,0,
2013-02-20, 01:30:04,VALID,1007.06,VALID,0,VALID,104,VALID,0,VALID,25.1771,VALID,339,VALID,0,
2013-02-20, 01:31:04,VALID,1007.04,VALID,0,VALID,104,VALID,0,VALID,25.1771,VALID,339,VALID,0,
2013-02-20, 01:32:04,VALID,1007.04,VALID,0,VALID,104,VALID,0,VALID,25.1557,VALID,339,VALID,0.223828,
2013-02-20, 01:33:04,VALID,1007.03,VALID,0,VALID,104,VALID,0.112112,VALID,25.1538,VALID,339,VALID,0.166016,
2013-02-20, 01:34:04,VALID,1007.01,VALID,0,VALID,104,VALID,0.112112,VALID,25.1733,VALID,339,VALID,0.0117188,
2013-02-20, 01:35:04,VALID,1007.01,VALID,0,VALID,104,VALID,0.112112,VALID,25.1538,VALID,339,VALID,0,
2013-02-20, 01:36:04,VALID,1006.99,VALID,0,VALID,104,VALID,0.112112,VALID,25.1538,VALID,339,VALID,0,
2013-02-20, 01:37:04,VALID,1007.01,VALID,0,VALID,104,VALID,0.112112,VALID,25.1538,VALID,339,VALID,0.201172,
2013-02-20, 01:38:04,VALID,1007,VALID,0,VALID,104,VALID,0.112112,VALID,25.1343,VALID,339,VALID,0.285156,
2013-02-20, 01:39:04,VALID,1007,VALID,0,VALID,104,VALID,0,VALID,25.1343,VALID,339,VALID,0,
2013-02-20, 01:40:04,VALID,1006.99,VALID,0,VALID,104,VALID,0.112112,VALID,25.1343,VALID,339,VALID,0,
2013-02-20, 01:41:04,VALID,1007.01,VALID,0,VALID,104,VALID,0.112112,VALID,25.1343,VALID,339,VALID,0,
2013-02-20, 01:42:04,VALID,1006.98,VALID,0,VALID,104,VALID,0.112112,VALID,25.1557,VALID,339,VALID,0,
2013-02-20, 01:43:04,VALID,1006.97,VALID,0,VALID,104,VALID,0.112112,VALID,25.1343,VALID,339,VALID,0,
2013-02-20, 01:44:04,VALID,1006.97,VALID,0,VALID,104,VALID,0.112112,VALID,25.1343,VALID,339,VALID,0,
2013-02-20, 01:45:04,VALID,1006.96,VALID,0,VALID,104,VALID,0.112112,VALID,25.1557,VALID,339,VALID,0.0695312,
2013-02-20, 01:46:04,VALID,1006.94,VALID,0,VALID,104,VALID,0,VALID,25.1362,VALID,339,VALID,0.0492188,
2013-02-20, 01:47:04,VALID,1006.92,VALID,0,VALID,104,VALID,0,VALID,25.1557,VALID,339,VALID,0.00429688,
2013-02-20, 01:48:04,VALID,1006.92,VALID,0,VALID,104,VALID,0,VALID,25.1557,VALID,339,VALID,0.235938,
2013-02-20, 01:49:04,VALID,1006.91,VALID,0,VALID,104,VALID,0,VALID,25.1557,VALID,338,VALID,0.340234,
2013-02-20, 01:50:04,VALID,1006.92,VALID,0,VALID,104,VALID,0,VALID,25.1771,VALID,339,VALID,0.257422,
2013-02-20, 01:51:04,VALID,1006.91,VALID,0,VALID,104,VALID,0,VALID,25.1752,VALID,339,VALID,0.115234,
2013-02-20, 01:52:04,VALID,1006.89,VALID,0,VALID,104,VALID,0,VALID,25.1752,VALID,339,VALID,0.225,
2013-02-20, 01:53:04,VALID,1006.87,VALID,0,VALID,104,VALID,0,VALID,25.1557,VALID,339,VALID,0,
2013-02-20, 01:54:04,VALID,1006.84,VALID,0,VALID,104,VALID,0,VALID,25.1557,VALID,339,VALID,0,
2013-02-20, 01:55:04,VALID,1006.84,VALID,0,VALID,104,VALID,0,VALID,25.1557,VALID,339,VALID,0,
2013-02-20, 01:56:04,VALID,1006.82,VALID,0,VALID,104,VALID,0,VALID,25.1557,VALID,339,VALID,0.0777344,
2013-02-20, 01:57:04,VALID,1006.83,VALID,0,VALID,104,VALID,0,VALID,25.1362,VALID,339,VALID,0.248828,
2013-02-20, 01:58:04,VALID,1006.8,VALID,0,VALID,104,VALID,0,VALID,25.1362,VALID,339,VALID,0.028125,
2013-02-20, 01:59:04,VALID,1006.82,VALID,0,VALID,104,VALID,0,VALID,25.1362,VALID,339,VALID,0.00117188,
2013-02-20, 02:00:04,VALID,1006.78,VALID,0,VALID,104,VALID,0,VALID,25.1362,VALID,339,VALID,0,
2013-02-20, 02:01:04,VALID,1006.77,VALID,0,VALID,104,VALID,0,VALID,25.1362,VALID,339,VALID,0,
2013-02-20, 02:02:04,VALID,1006.73,VALID,0,VALID,104,VALID,0,VALID,25.1167,VALID,339,VALID,0,
2013-02-20, 02:03:04,VALID,1006.72,VALID,0,VALID,104,VALID,0,VALID,25.1362,VALID,339,VALID,0,
2013-02-20, 02:04:04,VALID,1006.73,VALID,0,VALID,104,VALID,0,VALID,25.1381,VALID,339,VALID,0,
2013-02-20, 02:05:04,VALID,1006.71,VALID,0,VALID,104,VALID,0,VALID,25.1167,VALID,339,VALID,0.139844,
2013-02-20, 02:06:04,VALID,1006.71,VALID,0,VALID,104,VALID,0,VALID,25.0973,VALID,339,VALID,0.0183594,
2013-02-20, 02:07:04,VALID,1006.67,VALID,0,VALID,104,VALID,0,VALID,25.0759,VALID,339,VALID,0,
2013-02-20, 02:08:04,VALID,1006.65,VALID,0,VALID,104,VALID,0,VALID,25.0973,VALID,339,VALID,0,
2013-02-20, 02:09:04,VALID,1006.64,VALID,0,VALID,104,VALID,0,VALID,25.0583,VALID,339,VALID,0,
2013-02-20, 02:10:04,VALID,1006.65,VALID,0,VALID,104,VALID,0,VALID,25.0583,VALID,339,VALID,0,
2013-02-20, 02:11:04,VALID,1006.67,VALID,0,VALID,104,VALID,0,VALID,25.0797,VALID,339,VALID,0,
2013-02-20, 02:12:04,VALID,1006.63,VALID,0,VALID,104,VALID,0,VALID,25.0388,VALID,339,VALID,0,
2013-02-20, 02:13:04,VALID,1006.66,VALID,0,VALID,104,VALID,0,VALID,25.0388,VALID,339,VALID,0,
2013-02-20, 02:14:04,VALID,1006.63,VALID,0,VALID,104,VALID,0,VALID,25.0388,VALID,339,VALID,0,
2013-02-20, 02:15:04,VALID,1006.64,VALID,0,VALID,104,VALID,0,VALID,25.0407,VALID,339,VALID,0,
2013-02-20, 02:16:04,VALID,1006.62,VALID,0,VALID,104,VALID,0,VALID,25.0388,VALID,339,VALID,0,
2013-02-20, 02:17:04,VALID,1006.62,VALID,0,VALID,104,VALID,0,VALID,25.0407,VALID,338,VALID,0,
2013-02-20, 02:18:04,VALID,1006.61,VALID,0,VALID,104,VALID,0,VALID,24.9998,VALID,339,VALID,0,
2013-02-20, 02:19:04,VALID,1006.6,VALID,0,VALID,104,VALID,0,VALID,24.9803,VALID,339,VALID,0,
2013-02-20, 02:20:04,VALID,1006.6,VALID,0,VALID,104,VALID,0,VALID,24.9803,VALID,339,VALID,0,
2013-02-20, 02:21:04,VALID,1006.58,VALID,0,VALID,104,VALID,0,VALID,24.9608,VALID,339,VALID,0,
2013-02-20, 02:22:04,VALID,1006.57,VALID,0,VALID,104,VALID,0,VALID,24.9413,VALID,339,VALID,0,
2013-02-20, 02:23:04,VALID,1006.59,VALID,0,VALID,104,VALID,0,VALID,24.9432,VALID,339,VALID,0,
2013-02-20, 02:24:04,VALID,1006.59,VALID,0,VALID,104,VALID,0,VALID,24.9218,VALID,339,VALID,0,
2013-02-20, 02:25:04,VALID,1006.6,VALID,0,VALID,104,VALID,0,VALID,24.9023,VALID,339,VALID,0,
2013-02-20, 02:26:04,VALID,1006.58,VALID,0,VALID,104,VALID,0,VALID,24.8828,VALID,339,VALID,0,
2013-02-20, 02:27:04,VALID,1006.56,VALID,0,VALID,104,VALID,0,VALID,24.8828,VALID,339,VALID,0.253516,
2013-02-20, 02:28:04,VALID,1006.54,VALID,0,VALID,104,VALID,0,VALID,24.8438,VALID,339,VALID,0.289453,
2013-02-20, 02:29:04,VALID,1006.5,VALID,0,VALID,104,VALID,0,VALID,24.8244,VALID,339,VALID,0.278906,
2013-02-20, 02:30:04,VALID,1006.47,VALID,0,VALID,104,VALID,0,VALID,24.8049,VALID,339,VALID,0.283984,
2013-02-20, 02:31:04,VALID,1006.45,VALID,0,VALID,104,VALID,0,VALID,24.7854,VALID,339,VALID,0.195703,
2013-02-20, 02:32:04,VALID,1006.46,VALID,0,VALID,104,VALID,0,VALID,24.7854,VALID,339,VALID,0.238281,
2013-02-20, 02:33:04,VALID,1006.46,VALID,0,VALID,104,VALID,0,VALID,24.7659,VALID,339,VALID,0.266016,
2013-02-20, 02:34:04,VALID,1006.45,VALID,0,VALID,104,VALID,0,VALID,24.7659,VALID,339,VALID,0.194922,
2013-02-20, 02:35:04,VALID,1006.43,VALID,0,VALID,104,VALID,0,VALID,24.7854,VALID,338,VALID,0.144141,
2013-02-20, 02:36:04,VALID,1006.38,VALID,0,VALID,104,VALID,0,VALID,24.7659,VALID,339,VALID,0.0410156,
2013-02-20, 02:37:04,VALID,1006.42,VALID,0,VALID,104,VALID,0,VALID,24.7659,VALID,339,VALID,0,
2013-02-20, 02:38:04,VALID,1006.4,VALID,0,VALID,104,VALID,0,VALID,24.7659,VALID,339,VALID,0.05,
2013-02-20, 02:39:04,VALID,1006.43,VALID,0,VALID,104,VALID,0,VALID,24.7464,VALID,339,VALID,0.0910156,
2013-02-20, 02:40:04,VALID,1006.44,VALID,0,VALID,104,VALID,0,VALID,24.7464,VALID,339,VALID,0.165234,
2013-02-20, 02:41:04,VALID,1006.44,VALID,0,VALID,104,VALID,0,VALID,24.7659,VALID,339,VALID,0.127734,
2013-02-20, 02:42:04,VALID,1006.45,VALID,0,VALID,104,VALID,0,VALID,24.7659,VALID,339,VALID,0.0132813,
2013-02-20, 02:43:04,VALID,1006.48,VALID,0,VALID,104,VALID,0,VALID,24.8049,VALID,339,VALID,0,
2013-02-20, 02:44:04,VALID,1006.48,VALID,0,VALID,104,VALID,0,VALID,24.8049,VALID,339,VALID,0,
2013-02-20, 02:45:04,VALID,1006.5,VALID,0,VALID,104,VALID,0,VALID,24.8049,VALID,338,VALID,0,
2013-02-20, 02:46:04,VALID,1006.49,VALID,0,VALID,104,VALID,0,VALID,24.8067,VALID,339,VALID,0,
2013-02-20, 02:47:04,VALID,1006.5,VALID,0,VALID,104,VALID,0,VALID,24.7854,VALID,339,VALID,0,
2013-02-20, 02:48:04,VALID,1006.49,VALID,0,VALID,104,VALID,0,VALID,24.8049,VALID,339,VALID,0,
2013-02-20, 02:49:04,VALID,1006.46,VALID,0,VALID,104,VALID,0,VALID,24.8244,VALID,339,VALID,0,
2013-02-20, 02:50:04,VALID,1006.42,VALID,0,VALID,104,VALID,0,VALID,24.8225,VALID,339,VALID,0,
2013-02-20, 02:51:04,VALID,1006.42,VALID,0,VALID,104,VALID,0,VALID,24.8847,VALID,339,VALID,0.175391,
2013-02-20, 02:52:04,VALID,1006.4,VALID,0,VALID,104,VALID,0,VALID,24.8633,VALID,339,VALID,0.0839844,
2013-02-20, 02:53:04,VALID,1006.41,VALID,0,VALID,104,VALID,0,VALID,24.8615,VALID,339,VALID,0,
2013-02-20, 02:54:04,VALID,1006.4,VALID,0,VALID,104,VALID,0,VALID,24.8828,VALID,339,VALID,0,
2013-02-20, 02:55:04,VALID,1006.39,VALID,0,VALID,104,VALID,0,VALID,24.8828,VALID,339,VALID,0.0238281,
2013-02-20, 02:56:04,VALID,1006.41,VALID,0,VALID,104,VALID,0,VALID,24.9042,VALID,338,VALID,0,
2013-02-20, 02:57:04,VALID,1006.47,VALID,0,VALID,104,VALID,0,VALID,24.8828,VALID,339,VALID,0,
2013-02-20, 02:58:04,VALID,1006.47,VALID,0,VALID,104,VALID,0,VALID,24.8633,VALID,339,VALID,0.280078,
2013-02-20, 02:59:04,VALID,1006.49,VALID,0,VALID,104,VALID,0,VALID,24.8633,VALID,339,VALID,0.0265625,
2013-02-20, 03:00:04,VALID,1006.5,VALID,0,VALID,104,VALID,0,VALID,24.8633,VALID,338,VALID,0,
2013-02-20, 03:01:04,VALID,1006.54,VALID,0,VALID,104,VALID,0,VALID,24.8633,VALID,339,VALID,0,
2013-02-20, 03:02:04,VALID,1006.53,VALID,0,VALID,104,VALID,0,VALID,24.8438,VALID,339,VALID,0,
2013-02-20, 03:03:04,VALID,1006.55,VALID,0,VALID,104,VALID,0,VALID,24.8633,VALID,339,VALID,0,
2013-02-20, 03:04:04,VALID,1006.58,VALID,0,VALID,104,VALID,0,VALID,24.8244,VALID,338,VALID,0,
2013-02-20, 03:05:04,VALID,1006.61,VALID,0,VALID,104,VALID,0,VALID,24.8244,VALID,338,VALID,0,
2013-02-20, 03:06:04,VALID,1006.65,VALID,0,VALID,104,VALID,0,VALID,24.8049,VALID,339,VALID,0,
2013-02-20, 03:07:04,VALID,1006.62,VALID,0,VALID,104,VALID,0,VALID,24.8244,VALID,339,VALID,0,
2013-02-20, 03:08:04,VALID,1006.62,VALID,0,VALID,104,VALID,0,VALID,24.8244,VALID,339,VALID,0,
2013-02-20, 03:09:04,VALID,1006.6,VALID,0,VALID,104,VALID,0,VALID,24.8049,VALID,339,VALID,0,
2013-02-20, 03:10:04,VALID,1006.58,VALID,0,VALID,104,VALID,0,VALID,24.8828,VALID,339,VALID,0,
2013-02-20, 03:11:04,VALID,1006.54,VALID,0,VALID,104,VALID,0,VALID,24.8828,VALID,339,VALID,0,
2013-02-20, 03:12:04,VALID,1006.53,VALID,0,VALID,104,VALID,0,VALID,24.9023,VALID,339,VALID,0,
2013-02-20, 03:13:04,VALID,1006.53,VALID,0,VALID,104,VALID,0,VALID,24.9237,VALID,339,VALID,0,
2013-02-20, 03:14:04,VALID,1006.52,VALID,0,VALID,104,VALID,0,VALID,24.9218,VALID,339,VALID,0,
2013-02-20, 03:15:04,VALID,1006.49,VALID,0,VALID,104,VALID,0,VALID,24.9023,VALID,339,VALID,0,
2013-02-20, 03:16:04,VALID,1006.48,VALID,0,VALID,104,VALID,0,VALID,24.9023,VALID,339,VALID,0,
2013-02-20, 03:17:04,VALID,1006.47,VALID,0,VALID,104,VALID,0,VALID,24.8828,VALID,339,VALID,0,
2013-02-20, 03:18:04,VALID,1006.48,VALID,0,VALID,104,VALID,0,VALID,24.9218,VALID,339,VALID,0,
2013-02-20, 03:19:04,VALID,1006.48,VALID,0,VALID,104,VALID,0,VALID,24.9218,VALID,339,VALID,0.446094,
2013-02-20, 03:20:04,VALID,1006.47,VALID,0,VALID,104,VALID,0,VALID,24.8633,VALID,339,VALID,0.598047,
2013-02-20, 03:21:04,VALID,1006.47,VALID,0,VALID,104,VALID,0,VALID,24.8633,VALID,339,VALID,0.594531,
2013-02-20, 03:22:04,VALID,1006.48,VALID,0,VALID,104,VALID,0,VALID,24.8438,VALID,339,VALID,0.317578,
2013-02-20, 03:23:04,VALID,1006.49,VALID,0,VALID,104,VALID,0,VALID,24.8438,VALID,339,VALID,0.358594,
2013-02-20, 03:24:04,VALID,1006.49,VALID,0,VALID,104,VALID,0,VALID,24.8244,VALID,339,VALID,0.353516,
2013-02-20, 03:25:04,VALID,1006.53,VALID,0,VALID,104,VALID,0,VALID,24.8244,VALID,339,VALID,0.421484,
2013-02-20, 03:26:04,VALID,1006.54,VALID,0,VALID,104,VALID,0,VALID,24.8049,VALID,339,VALID,0.266016,
2013-02-20, 03:27:04,VALID,1006.53,VALID,0,VALID,104,VALID,0,VALID,24.8049,VALID,339,VALID,0.119141,
2013-02-20, 03:28:04,VALID,1006.51,VALID,0,VALID,104,VALID,0,VALID,24.8244,VALID,339,VALID,0,
2013-02-20, 03:29:04,VALID,1006.49,VALID,0,VALID,104,VALID,0,VALID,24.8244,VALID,339,VALID,0,
2013-02-20, 03:30:04,VALID,1006.44,VALID,0,VALID,104,VALID,0,VALID,24.8244,VALID,339,VALID,0.371094,
2013-02-20, 03:31:04,VALID,1006.43,VALID,0,VALID,104,VALID,0,VALID,24.8633,VALID,339,VALID,0.573828,
2013-02-20, 03:32:04,VALID,1006.4,VALID,0,VALID,104,VALID,0,VALID,24.8828,VALID,115,VALID,0.613281,
2013-02-20, 03:33:04,VALID,1006.37,VALID,0,VALID,104,VALID,0,VALID,24.9218,VALID,115,VALID,0.419141,
2013-02-20, 03:34:04,VALID,1006.42,VALID,0,VALID,104,VALID,0,VALID,24.9413,VALID,115,VALID,0.508594,
2013-02-20, 03:35:04,VALID,1006.46,VALID,0,VALID,104,VALID,0,VALID,24.9413,VALID,115,VALID,0.615234,
2013-02-20, 03:36:04,VALID,1006.46,VALID,0,VALID,104,VALID,0,VALID,24.9413,VALID,95,VALID,0.764063,
2013-02-20, 03:37:04,VALID,1006.5,VALID,0,VALID,104,VALID,0,VALID,24.9608,VALID,95,VALID,0.466016,
2013-02-20, 03:38:04,VALID,1006.54,VALID,0,VALID,104,VALID,0,VALID,24.9394,VALID,56,VALID,0.518359,
2013-02-20, 03:39:04,VALID,1006.59,VALID,0,VALID,104,VALID,0,VALID,24.9608,VALID,44,VALID,0.600781,
2013-02-20, 03:40:04,VALID,1006.6,VALID,0,VALID,104,VALID,0,VALID,24.9218,VALID,33,VALID,0.613672,
2013-02-20, 03:41:04,VALID,1006.63,VALID,0,VALID,104,VALID,0,VALID,24.9004,VALID,13,VALID,0.435547,
2013-02-20, 03:42:04,VALID,1006.59,VALID,0,VALID,104,VALID,0,VALID,24.9432,VALID,12,VALID,0.466406,
2013-02-20, 03:43:04,VALID,1006.62,VALID,0,VALID,104,VALID,0,VALID,24.9218,VALID,12,VALID,0.0109375,
2013-02-20, 03:44:04,VALID,1006.62,VALID,0,VALID,104,VALID,0,VALID,24.9004,VALID,12,VALID,0.100781,
2013-02-20, 03:45:04,VALID,1006.58,VALID,0,VALID,104,VALID,0,VALID,24.9413,VALID,13,VALID,0.0078125,
2013-02-20, 03:46:04,VALID,1006.6,VALID,0,VALID,104,VALID,0,VALID,24.9413,VALID,12,VALID,0.0582031,
2013-02-20, 03:47:04,VALID,1006.61,VALID,0,VALID,104,VALID,0,VALID,24.9218,VALID,12,VALID,0.2625,
2013-02-20, 03:48:04,VALID,1006.62,VALID,0,VALID,104,VALID,0,VALID,24.9413,VALID,12,VALID,0.161328,
2013-02-20, 03:49:04,VALID,1006.67,VALID,0,VALID,104,VALID,0,VALID,24.9413,VALID,12,VALID,0,
2013-02-20, 03:50:04,VALID,1006.71,VALID,0,VALID,104,VALID,0,VALID,24.9627,VALID,12,VALID,0,
2013-02-20, 03:51:04,VALID,1006.73,VALID,0,VALID,104,VALID,0,VALID,24.9608,VALID,12,VALID,0.296484,
2013-02-20, 03:52:04,VALID,1006.76,VALID,0,VALID,104,VALID,0,VALID,24.9413,VALID,12,VALID,0.388672,
2013-02-20, 03:53:04,VALID,1006.78,VALID,0,VALID,104,VALID,0,VALID,24.9218,VALID,12,VALID,0.333594,
2013-02-20, 03:54:04,VALID,1006.77,VALID,0,VALID,104,VALID,0,VALID,24.9218,VALID,12,VALID,0.305469,
2013-02-20, 03:55:04,VALID,1006.79,VALID,0,VALID,104,VALID,0,VALID,24.9004,VALID,12,VALID,0.271875,
2013-02-20, 03:56:04,VALID,1006.83,VALID,0,VALID,104,VALID,0,VALID,24.9023,VALID,12,VALID,0.259766,
2013-02-20, 03:57:04,VALID,1006.78,VALID,0,VALID,104,VALID,0,VALID,24.8828,VALID,12,VALID,0.359375,
2013-02-20, 03:58:04,VALID,1006.81,VALID,0,VALID,104,VALID,0,VALID,24.8633,VALID,12,VALID,0.309375,
2013-02-20, 03:59:04,VALID,1006.82,VALID,0,VALID,104,VALID,0,VALID,24.8438,VALID,12,VALID,0.383203,